Location: Caltech
(34.1382°N, 118.1253°W)
Time: 16:03:51
(UTC-07:00)

Cosmos 1943 Rocket - Visible Passes

Search period start: 23 July 2016 00:00
Search period end: 02 August 2016 00:00
Orbit: 811 x 845 km, 71.0° (Epoch: 22 July)

Date Brightness Start Highest point End Pass type
(mag) Time Alt. Az. Time Alt. Az. Time Alt. Az.
23 Jul 3.4 01:34:26 37° NNE 01:34:26 37° NNE 01:37:42 10° NNE visible
23 Jul 4.3 03:15:57 13° WNW 03:16:29 13° NW 03:18:58 10° NNW visible
24 Jul 3.7 01:15:38 31° NE 01:15:38 31° NE 01:18:31 10° NNE visible
24 Jul 4.2 02:57:09 15° NW 02:57:14 15° NW 03:00:19 10° NNW visible
25 Jul 3.9 00:56:48 27° NE 00:56:48 27° NE 00:59:19 10° NNE visible
25 Jul 4.2 02:38:19 17° NW 02:38:19 17° NW 02:41:33 10° NNW visible
26 Jul 4.0 00:37:57 23° NE 00:37:57 23° NE 00:40:06 10° NNE visible
26 Jul 4.1 02:19:27 19° NW 02:19:27 19° NW 02:22:42 10° NNW visible
27 Jul 4.2 00:19:04 20° NE 00:19:04 20° NE 00:20:51 10° NE visible
27 Jul 4.1 02:00:34 21° NW 02:00:34 21° NW 02:03:48 10° N visible
28 Jul 4.3 00:00:08 17° NE 00:00:08 17° NE 00:01:35 10° NE visible
28 Jul 4.0 01:41:39 23° NW 01:41:39 23° NW 01:44:52 10° N visible
28 Jul 4.4 23:41:11 15° NE 23:41:11 15° NE 23:42:17 10° NE visible
29 Jul 4.0 01:22:42 25° NNW 01:22:42 25° NNW 01:25:53 10° N visible
29 Jul 4.5 23:22:12 13° NE 23:22:12 13° NE 23:22:57 10° NE visible
30 Jul 3.9 01:03:42 27° NNW 01:03:42 27° NNW 01:06:53 10° N visible
30 Jul 4.5 23:03:10 12° NE 23:03:10 12° NE 23:03:34 10° NE visible
31 Jul 3.9 00:44:40 28° NNW 00:44:40 28° NNW 00:47:51 10° N visible
31 Jul 4.6 22:44:06 10° NE 22:44:06 10° NE 22:44:08 10° NE visible
01 Aug 3.8 00:25:36 30° NNW 00:25:36 30° NNW 00:28:48 10° N visible
